SCP
0 0 0 0 0 0 0 0 0 0 0 0 0 0 0 0 0 0 0 0 0 0
0 0 0 0 0 0 0 0 0 0 0 0 0 0 0 0 0 0 0 0 0 0
0 0 0 0 0 0 0 0 0 0 0 0 0 0 0 0 0 0 0 0 0 0
0 0 0 0 0 0 0 0 0 0 0 0 0 0 0 0 0 0 0 0 0 0
0 0 0 0 0 0 0 0 0 0 0 0 0 0 0 0 0 0 0 0 0 0
0 0 0 0 0 0 0 0 0 0 0 0 0 0 0 0 0 0 0 0 0 0
0 0 0 0 0 0 0 0 0 0 0 0 0 0 0 0 0 0 0 0 0 0
0 0 0 0 0 0 0 0 0 0 0 0 0 0 0 0 0 0 0 0 0 0
0 0 0 0 0 0 0 0 0 0 0 0 0 0 0 0 0 0 0 0 0 0
0 0 0 0 0 0 0 0 0 0 0 0 0 0 0 0 0 0 0 0 0 0
0 0 0 0 0 0 0 0 0 0 0 0 0 0 0 0 0 0 0 0 0 0
0 0 0 0 0 0 0 0 0 0 0 0 0 0 0 0 0 0 0 0 0 0
0 0 0 0 0 0 0 0 0 0 0 0 0 0 0 0 0 0 0 0 0 0
0 0 0 0 0 0 0 0 0 0 0 0 0 0 0 0 0 0 0 0 0 0
Wind_Speed_500mb
72 77 73 67 60 61 60 60 56 52 47 48 48 49 53 61 62 61 60 59 60 61
78 80 82 75 69 61 53 54 49 46 42 47 50 48 48 53 55 56 57 59 59 61
79 82 83 79 71 58 51 48 45 48 54 48 59 62 56 52 50 53 50 51 53 56
72 72 66 69 64 60 51 49 48 51 53 55 53 52 50 49 49 46 51 51 56 52
71 83 80 65 57 58 58 55 50 54 56 50 44 47 52 49 51 57 58 57 50 47
41 50 55 57 59 57 59 59 54 50 47 45 54 47 53 55 57 59 52 50 46 50
27 34 42 44 46 47 47 49 59 52 49 48 51 55 48 45 48 49 48 47 47 43
23 29 36 43 50 54 58 56 47 45 44 42 33 29 26 23 25 27 29 23 19 18
12 15 19 24 29 32 32 32 32 33 32 27 23 21 20 19 17 18 17 17 17 20
7 9 13 16 17 18 22 24 25 26 26 23 22 20 16 15 15 16 15 15 16 17
8 8 10 11 14 17 18 21 23 24 21 20 20 19 17 16 15 16 13 12 11 13
16 17 17 18 19 20 21 23 24 24 25 24 24 22 20 17 15 14 12 12 13 15
24 25 26 28 29 30 30 31 32 32 31 30 28 24 21 19 17 15 14 15 18 19
31 31 32 33 34 34 34 34 35 34 31 27 23 20 19 18 18 18 19 20 23 25
Wind_Direction_500mb
251 252 253 255 257 256 257 262 264 269 266 261 262 263 262 259 258 260 259 259 261 262
253 255 257 258 261 260 261 261 269 268 263 261 261 256 256 256 256 258 261 261 262 262
252 255 258 258 261 264 260 255 253 259 257 256 257 250 250 253 255 259 262 264 266 267
247 253 256 256 258 262 258 258 252 254 256 261 255 252 253 252 254 257 260 259 265 270
246 245 248 250 253 255 250 255 253 254 255 254 243 252 252 250 257 264 261 266 272 256
249 250 248 247 245 247 249 247 247 250 256 255 260 252 254 256 258 265 261 261 258 266
247 237 232 229 234 236 240 244 255 255 251 248 256 255 251 251 249 252 255 256 258 260
246 238 235 234 236 239 242 245 238 237 241 239 231 231 238 239 243 247 247 247 247 245
228 228 227 221 221 219 216 213 213 213 212 203 203 208 214 220 228 238 246 248 250 249
225 214 200 190 190 194 189 187 186 192 195 192 192 200 212 229 240 241 244 247 248 253
244 229 228 214 198 198 200 199 195 195 199 202 208 218 230 236 235 235 236 245 258 271
262 254 246 240 237 234 228 224 220 219 219 221 223 226 228 230 231 231 241 258 269 276
265 260 257 254 250 246 242 241 239 234 231 229 226 222 221 224 235 245 257 268 274 276
273 266 262 257 252 249 247 246 243 239 235 229 222 219 220 231 243 255 264 272 281 285
Wind_Speed_850mb
72 77 73 67 60 61 60 60 56 52 47 48 48 49 53 61 62 61 60 59 60 61
78 80 82 75 69 61 53 54 49 46 42 47 50 48 48 53 55 56 57 59 59 61
79 82 83 79 71 58 51 48 45 48 54 48 59 62 56 52 50 53 50 51 53 56
72 72 66 69 64 60 51 49 48 51 53 55 53 52 50 49 49 46 51 51 56 52
71 83 80 65 57 58 58 55 50 54 56 50 44 47 52 49 51 57 58 57 50 47
41 50 55 57 59 57 59 59 54 50 47 45 54 47 53 55 57 59 52 50 46 50
27 34 42 44 46 47 47 49 59 52 49 48 51 55 48 45 48 49 48 47 47 43
23 29 36 43 50 54 58 56 47 45 44 42 33 29 26 23 25 27 29 23 19 18
12 15 19 24 29 32 32 32 32 33 32 27 23 21 20 19 17 18 17 17 17 20
7 9 13 16 17 18 22 24 25 26 26 23 22 20 16 15 15 16 15 15 16 17
8 8 10 11 14 17 18 21 23 24 21 20 20 19 17 16 15 16 13 12 11 13
16 17 17 18 19 20 21 23 24 24 25 24 24 22 20 17 15 14 12 12 13 15
24 25 26 28 29 30 30 31 32 32 31 30 28 24 21 19 17 15 14 15 18 19
31 31 32 33 34 34 34 34 35 34 31 27 23 20 19 18 18 18 19 20 23 25
Wind_Direction_850mb
251 252 253 255 257 256 257 262 264 269 266 261 262 263 262 259 258 260 259 259 261 262
253 255 257 258 261 260 261 261 269 268 263 261 261 256 256 256 256 258 261 261 262 262
252 255 258 258 261 264 260 255 253 259 257 256 257 250 250 253 255 259 262 264 266 267
247 253 256 256 258 262 258 258 252 254 256 261 255 252 253 252 254 257 260 259 265 270
246 245 248 250 253 255 250 255 253 254 255 254 243 252 252 250 257 264 261 266 272 256
249 250 248 247 245 247 249 247 247 250 256 255 260 252 254 256 258 265 261 261 258 266
247 237 232 229 234 236 240 244 255 255 251 248 256 255 251 251 249 252 255 256 258 260
246 238 235 234 236 239 242 245 238 237 241 239 231 231 238 239 243 247 247 247 247 245
228 228 227 221 221 219 216 213 213 213 212 203 203 208 214 220 228 238 246 248 250 249
225 214 200 190 190 194 189 187 186 192 195 192 192 200 212 229 240 241 244 247 248 253
244 229 228 214 198 198 200 199 195 195 199 202 208 218 230 236 235 235 236 245 258 271
262 254 246 240 237 234 228 224 220 219 219 221 223 226 228 230 231 231 241 258 269 276
265 260 257 254 250 246 242 241 239 234 231 229 226 222 221 224 235 245 257 268 274 276
273 266 262 257 252 249 247 246 243 239 235 229 222 219 220 231 243 255 264 272 281 285